Location: Altenst�hlen
(53.5567°N, 8.9425°E)
Time: 06:11:39
(UTC+00:00)

STARLINK-48 - Pass Details

Date: 23 October 2019
Orbit: 507 x 508 km, 53.0° (Epoch: 18 November)

Event Time Altitude Azimuth Distance (km) Brightness Sun altitude
Rises 17:12:31 0° 279° (W) 2,611 8.9 -9.8°
Reaches altitude 10° 17:14:43 10° 277° (W) 1,725 7.6 -10.1°
Maximum altitude 17:18:36 70° 193° (SSW) 542 3.6 -10.7°
Enters shadow 17:21:53 14° 111° (ESE) 1,483 5.3 -11.2°
